Regional Weather Roundup
Issued by NWS Wilmington, NC

Home | Current Version | Previous Version | Text Only | Print | Product List | Glossary On
Versions: 1 2 3 4 5 6 7 8 9 10 11 12 13 14 15 16 17 18 19 20 21 22 23 24 25 26 27 28 29 30 31 32 33 34 35 36 37 38 39 40 41 42 43 44 45 46 47 48 49 50
000
ASUS42 KILM 131313
RWRILM
RWRILM
REGIONAL HOURLY WEATHER ROUNDUP
NATIONAL WEATHER SERVICE WILMINGTON NC
800 AM EST SAT FEB 13 2016

NOTE: "FAIR" INDICATES FEW OR NO CLOUDS BELOW 12,000 FEET WITH NO
SIGNIFICANT WEATHER AND/OR OBSTRUCTIONS TO VISIBILITY.

...............WFO WILMINGTON COUNTY WARNING AREA...............

......COASTAL NC AND SC COUNTIES......

CITY           SKY/WX    TMP DP  RH WIND       PRES   REMARKS
WILMINGTON     SUNNY     32  28  85 W3        30.22R FOG
N MYRTLE BEACH SUNNY     34  28  79 NW3       30.22R
MYRTLE BEACH   SUNNY     30  23  74 N7        30.23R WCI  23

......INLAND NC AND SC COUNTIES.......

CITY           SKY/WX    TMP DP  RH WIND       PRES   REMARKS
LUMBERTON      CLEAR     31  24  75 N6        30.23R WCI  25
ELIZABETHTOWN  SUNNY     29  26  89 CALM      30.22R
WHITEVILLE     SUNNY     30  28  90 CALM      30.22R
FLORENCE       CLEAR     28  25  88 NW5       30.23R WCI  23
DARLINGTON     CLEAR     30  21  69 N7        30.24R WCI  23
KINGSTREE      FAIR      28  27  93 CALM      30.24R
HARTSVILLE     FAIR      32  27  80 CALM      30.22R
BENNETTSVILLE  FAIR      28  28 100 CALM      30.24R
CONWAY         FAIR      30  28  93 CALM      30.23R FOG
GEORGETOWN     FAIR      32  28  86 NW3       30.24R
MARION         FAIR      30  28  93 NW3       30.24R

....................REST OF NORTH CAROLINA......................

.........EASTERN NC.........

CITY           SKY/WX    TMP DP  RH WIND       PRES   REMARKS
CAPE HATTERAS  SUNNY     33  25  72 NW9       30.15R WCI  25
JACKSONVILLE   SUNNY     28  21  74 CALM      30.21R
MOREHEAD CITY  SUNNY     33  24  69 N18       30.18R WCI  22
KENANSVILLE    SUNNY     29  25  86 CALM      30.22R
NEW BERN       SUNNY     31  23  72 NW8       30.21R WCI  23
ELIZABETH CITY MOSUNNY   27  20  75 NW18G26   30.18R WCI  14

.........CENTRAL NC.........

CITY           SKY/WX    TMP DP  RH WIND       PRES   REMARKS
RALEIGH DURHAM PTCLDY    29   8  41 VRB5      30.24R WCI  24
ROCKY MOUNT    SUNNY     29  11  47 NW16G28   30.22R WCI  17
ROANOKE RAPIDS NOT AVBL
FAYETTEVILLE   CLEAR     30  21  69 N8        30.22R WCI  22
HOFFMAN        CLEAR     27  23  84 N6        30.22R WCI  21

.........WESTERN NC.........

CITY           SKY/WX    TMP DP  RH WIND       PRES   REMARKS
CHARLOTTE      PTCLDY    30  11  45 N10       30.23R WCI  21
GREENSBORO     PTCLDY    26   4  38 N14G22    30.22R WCI  14
HICKORY        NOT AVBL
BOONE          NOT AVBL
ASHEVILLE      NOT AVBL

.....................REST OF SOUTH CAROLINA.....................

.........EASTERN SC.........

CITY           SKY/WX    TMP DP  RH WIND       PRES   REMARKS
CHARLESTON     CLEAR     35  30  82 NW7       30.25R WCI  29
BEAUFORT MCAS  PTCLDY    41  30  65 N6        30.26R
HILTON HEAD    CLEAR     43  32  65 N12G21    30.27R

.........CENTRAL SC.........

CITY           SKY/WX    TMP DP  RH WIND       PRES   REMARKS
COLUMBIA       CLEAR     35  20  54 NW6       30.25R WCI  30
ORANGEBURG     CLEAR     36  24  62 N5        30.25R WCI  32
SUMTER SHAW    CLEAR     32  24  72 NW6       30.22R WCI  27

.........WESTERN SC.........

CITY           SKY/WX    TMP DP  RH WIND       PRES   REMARKS
GREENVILLE     NOT AVBL
ROCK HILL      CLEAR     29  14  53 NW9       30.23R WCI  20
ANDERSON       CLEAR     32  16  51 W6        30.22R WCI  26
CLEMSON        NOT AVBL
GREENWOOD      CLEAR     31  21  66 N6        30.25R WCI  25


...................COASTAL AND OFFSHORE REPORTS..................

................LOCAL PIERS AND NC RESERVE................


STATION/POSITION TIME  SKY/WX   TEMP    WIND        PRES    VSBY
                                AIR SEA DIR/SP/G
                 (UTC)          (F)     (DEG/KT/KT) (MB)    (MI)
JOHNY MRCER PIER 1200            31 50  290/  4/  6 1020.7R
NC RESRV MASNBRO NOT AVBL
OCEAN CREST PIER NOT AVBL
SPRINGMAID  PIER 1200            32 48  290/  4/  5 1022.1R


................COASTAL AND OFFSHORE BUOYS................


STATION/POSITION TIME  SKY/WX   TEMP    WIND        PRES    VSBY
                                AIR SEA DIR/SP/G
                 (UTC)          (F)     (DEG/KT/KT) (MB)    (MI)
DIMNDSHOAL 41025 1150            38 71  340/ 19/ 25 1019.2
WVE H/P(F/S)=  5/ 8 SWL H/P/D(F/S/D)=  3/140/10

CAPE LOOKOUT     NOT AVBL
ONSLOW BAY 41036 NOT AVBL
ONSLOW BAY 41064 1208            42 61              1020.2R
ONSLOW BAY 41159 1255               61                N/A
WVE H/P(F/S)=  5/ 5

5SE WRITBC 41038 1208            38 50  340/ 14/ 19 1021.7R
MASNBO INL 41110 1206               50                N/A
WVE H/P(F/S)=  2/ 7

WILM HARBR 41108 1256               49                N/A
WVE H/P(F/S)=  2/ 6

27SE WRITB 41037 1208            43 59   10/ 17/ 27 1020.1R
FRYING PAN 41013 1200            43 53  350/ 19/ 23 1021.6R
SUNST NRSH 41024 NOT AVBL
CAPRS NRSH 41029 1208            41     330/ 12/ 16 1022.3R
EDISTO     41004 1150            48 67  350/ 17/ 23 1021.2
WVE H/P(F/S)=  4/ 4 SWL H/P/D(F/S/D)=  2/ 9



..........OFFSHORE BUOYS BEYOND 100 NM OFFSHORE...........
.....IN A TRIANGLE---HAT TO BERMUDA TO BAHAMAS TO HAT.....


STATION/POSITION TIME  SKY/WX   TEMP    WIND        PRES    VSBY
                                AIR SEA DIR/SP/G
                 (UTC)          (F)     (DEG/KT/KT) (MB)    (MI)
150E HAT   41001 1200            52 69  310/ 25/ 35 1015.0R
W BERMUDA  41048 1150            62 69  260/ 19/ 23 1015.2
WVE H/P(F/S)= 13/11 SWL H/P/D(F/S/D)= 10/280/11

ATLANTIC S 41049 1150            73 75  100/  4/  6 1020.2
WVE H/P(F/S)=  8/11 SWL H/P/D(F/S/D)=  8/300/11

E BAHAMAS  41046 1150            77 79  140/  8/ 10 1019.0
WVE H/P(F/S)=  6/ 8 SWL H/P/D(F/S/D)=  5/330/ 8

NE BAHAMAS 41047 1150            71 75  270/ 14/ 17 1020.3
WVE H/P(F/S)=  5/10 SWL H/P/D(F/S/D)=  3/ 30/10

120E CANVRL41010 1220            70 72              1020.4R

END



USA.gov is the U.S. government's official web portal to all federal, state and local government web resources and services.